Tracking 28125 objects as of 3-Oct-2023
HD Live streaming from Space Station
objects crossing your sky now

COSMOS 1823 DEB

Track COSMOS 1823 DEB now!
10-day predictions


NORAD ID: 39814
Int'l Code: 1987-020EN
Perigee: 1,481.0 km
Apogee: 1,521.5 km
Inclination: 73.6 °
Period: 115.9 minutes
Semi major axis: 7872 km
RCS: 0.0157 m2 (small)
Launch date: February 20, 1987
Source: Commonwealth of Independent States (former USSR) (CIS)
Launch site: PLESETSK MISSILE AND SPACE COMPLEX (PKMTR)

Note: This is SATELLITE DEBRIS
Your satellite tracking list
Your tracking list is empty




NASA's NSSDC Master Catalog

Two Line Element Set (TLE):
1 39814U 87020EN  23269.69654906  .00000100  00000-0  84526-3 0  9998
2 39814  73.6103 278.5797 0025762 183.0006 177.0888 12.42951749422463
Source of the keplerian elements: AFSPC